Year,Month,Day,Hour,Minute,Value (Times are PST for temperature in C)
2010,11,04,00,00,7.10
2010,11,04,00,01,7.10
2010,11,04,00,02,7.10
2010,11,04,00,03,7.10
2010,11,04,00,04,7.10
2010,11,04,00,05,7.10
2010,11,04,00,06,7.10
2010,11,04,00,07,7.10
2010,11,04,00,08,7.20
2010,11,04,00,09,7.20
2010,11,04,00,10,7.20
2010,11,04,00,11,7.20
2010,11,04,00,12,7.20
2010,11,04,00,13,7.20
2010,11,04,00,14,7.20
2010,11,04,00,15,7.20
2010,11,04,00,16,7.20
2010,11,04,00,17,7.20
2010,11,04,00,18,7.20
2010,11,04,00,19,7.20
2010,11,04,00,20,7.10
2010,11,04,00,21,7.10
2010,11,04,00,22,7.00
2010,11,04,00,23,7.00
2010,11,04,00,24,7.00
2010,11,04,00,25,7.00
2010,11,04,00,26,7.00
2010,11,04,00,27,7.00
2010,11,04,00,28,7.00
2010,11,04,00,29,7.00
2010,11,04,00,30,7.00
2010,11,04,00,31,7.00
2010,11,04,00,32,6.90
2010,11,04,00,33,6.90
2010,11,04,00,34,6.90
2010,11,04,00,35,6.90
2010,11,04,00,36,6.90
2010,11,04,00,37,6.90
2010,11,04,00,38,6.90
2010,11,04,00,39,6.90
2010,11,04,00,40,6.90
2010,11,04,00,41,6.90
2010,11,04,00,42,6.90
2010,11,04,00,43,6.90
2010,11,04,00,44,6.90
2010,11,04,00,45,6.80
2010,11,04,00,46,6.80
2010,11,04,00,47,6.80
2010,11,04,00,48,6.80
2010,11,04,00,49,6.80
2010,11,04,00,50,6.80
2010,11,04,00,51,6.80
2010,11,04,00,52,6.80
2010,11,04,00,53,6.80
2010,11,04,00,54,6.80
2010,11,04,00,55,6.80
2010,11,04,00,56,6.80
2010,11,04,00,57,6.80
2010,11,04,00,58,6.80
2010,11,04,00,59,6.80
2010,11,04,01,00,6.80
2010,11,04,01,01,6.80
2010,11,04,01,02,6.80
2010,11,04,01,03,6.80
2010,11,04,01,04,6.80
2010,11,04,01,05,6.80
2010,11,04,01,06,6.70
2010,11,04,01,07,6.70
2010,11,04,01,08,6.70
2010,11,04,01,09,6.70
2010,11,04,01,10,6.70
2010,11,04,01,11,6.70
2010,11,04,01,12,6.70
2010,11,04,01,13,6.70
2010,11,04,01,14,6.70
2010,11,04,01,15,6.70
2010,11,04,01,16,6.70
2010,11,04,01,17,6.70
2010,11,04,01,18,6.70
2010,11,04,01,19,6.70
2010,11,04,01,20,6.70
2010,11,04,01,21,6.80
2010,11,04,01,22,6.80
2010,11,04,01,23,6.80
2010,11,04,01,24,6.80
2010,11,04,01,25,6.80
2010,11,04,01,26,6.80
2010,11,04,01,27,6.80
2010,11,04,01,28,6.80
2010,11,04,01,29,6.80
2010,11,04,01,30,6.80
2010,11,04,01,31,6.80
2010,11,04,01,32,6.80
2010,11,04,01,33,6.80
2010,11,04,01,34,6.80
2010,11,04,01,35,6.80
2010,11,04,01,36,6.80
2010,11,04,01,37,6.80
2010,11,04,01,38,6.80
2010,11,04,01,39,6.80
2010,11,04,01,40,6.80
2010,11,04,01,41,6.80
2010,11,04,01,42,6.80
2010,11,04,01,43,6.80
2010,11,04,01,44,6.90
2010,11,04,01,45,6.90
2010,11,04,01,46,6.90
2010,11,04,01,47,6.90
2010,11,04,01,48,6.90
2010,11,04,01,49,6.90
2010,11,04,01,50,6.90
2010,11,04,01,51,6.90
2010,11,04,01,52,6.90
2010,11,04,01,53,6.90
2010,11,04,01,54,6.90
2010,11,04,01,55,6.90
2010,11,04,01,56,6.90
2010,11,04,01,57,6.90
2010,11,04,01,58,6.90
2010,11,04,01,59,6.90
2010,11,04,02,00,6.90
2010,11,04,02,01,6.90
2010,11,04,02,02,6.90
2010,11,04,02,03,6.90
2010,11,04,02,04,6.90
2010,11,04,02,05,6.90
2010,11,04,02,06,6.80
2010,11,04,02,07,6.80
2010,11,04,02,08,6.80
2010,11,04,02,09,6.80
2010,11,04,02,10,6.80
2010,11,04,02,11,6.70
2010,11,04,02,12,6.70
2010,11,04,02,13,6.70
2010,11,04,02,14,6.60
2010,11,04,02,15,6.60
2010,11,04,02,16,6.60
2010,11,04,02,17,6.60
2010,11,04,02,18,6.60
2010,11,04,02,19,6.40
2010,11,04,02,20,6.40
2010,11,04,02,21,6.40
2010,11,04,02,22,6.40
2010,11,04,02,23,6.40
2010,11,04,02,24,6.40
2010,11,04,02,25,6.40
2010,11,04,02,26,6.40
2010,11,04,02,27,6.40
2010,11,04,02,28,6.40
2010,11,04,02,29,6.40
2010,11,04,02,30,6.40
2010,11,04,02,31,6.30
2010,11,04,02,32,6.30
2010,11,04,02,33,6.30
2010,11,04,02,34,6.20
2010,11,04,02,35,6.20
2010,11,04,02,36,6.20
2010,11,04,02,37,6.20
2010,11,04,02,38,6.20
2010,11,04,02,39,6.20
2010,11,04,02,40,6.20
2010,11,04,02,41,6.20
2010,11,04,02,42,6.10
2010,11,04,02,43,6.10
2010,11,04,02,44,6.10
2010,11,04,02,45,6.10
2010,11,04,02,46,6.10
2010,11,04,02,47,6.00
2010,11,04,02,48,6.00
2010,11,04,02,49,6.00
2010,11,04,02,50,6.00
2010,11,04,02,51,6.00
2010,11,04,02,52,6.00
2010,11,04,02,53,6.00
2010,11,04,02,54,5.90
2010,11,04,02,55,5.90
2010,11,04,02,56,5.90
2010,11,04,02,57,5.90
2010,11,04,02,58,5.80
2010,11,04,02,59,5.80
2010,11,04,03,00,5.80
2010,11,04,03,01,5.80
2010,11,04,03,02,5.80
2010,11,04,03,03,5.70
2010,11,04,03,04,5.70
2010,11,04,03,05,5.70
2010,11,04,03,06,5.70
2010,11,04,03,07,5.70
2010,11,04,03,08,5.70
2010,11,04,03,09,5.70
2010,11,04,03,10,5.70
2010,11,04,03,11,5.70
2010,11,04,03,12,5.70
2010,11,04,03,13,5.70
2010,11,04,03,14,5.70
2010,11,04,03,15,5.70
2010,11,04,03,16,5.70
2010,11,04,03,17,5.70
2010,11,04,03,18,5.70
2010,11,04,03,19,5.70
2010,11,04,03,20,5.70
2010,11,04,03,21,5.70
2010,11,04,03,22,5.70
2010,11,04,03,23,5.70
2010,11,04,03,24,5.70
2010,11,04,03,25,5.70
2010,11,04,03,26,5.70
2010,11,04,03,27,5.70
2010,11,04,03,28,5.70
2010,11,04,03,29,5.70
2010,11,04,03,30,5.70
2010,11,04,03,31,5.70
2010,11,04,03,32,5.70
2010,11,04,03,33,5.70
2010,11,04,03,34,5.70
2010,11,04,03,35,5.70
2010,11,04,03,36,5.60
2010,11,04,03,37,5.60
2010,11,04,03,38,5.60
2010,11,04,03,39,5.60
2010,11,04,03,40,5.60
2010,11,04,03,41,5.60
2010,11,04,03,42,5.60
2010,11,04,03,43,5.60
2010,11,04,03,44,5.70
2010,11,04,03,45,5.70
2010,11,04,03,46,5.70
2010,11,04,03,47,5.70
2010,11,04,03,48,5.70
2010,11,04,03,49,5.70
2010,11,04,03,50,5.70
2010,11,04,03,51,5.70
2010,11,04,03,52,5.70
2010,11,04,03,53,5.60
2010,11,04,03,54,5.60
2010,11,04,03,55,5.60
2010,11,04,03,56,5.60
2010,11,04,03,57,5.60
2010,11,04,03,58,5.60
2010,11,04,03,59,5.60
2010,11,04,04,00,5.60
2010,11,04,04,01,5.60
2010,11,04,04,02,5.60
2010,11,04,04,03,5.60
2010,11,04,04,04,5.50
2010,11,04,04,05,5.50
2010,11,04,04,06,5.60
2010,11,04,04,07,5.60
2010,11,04,04,08,5.60
2010,11,04,04,09,5.60
2010,11,04,04,10,5.60
2010,11,04,04,11,5.70
2010,11,04,04,12,5.70
2010,11,04,04,13,5.70
2010,11,04,04,14,5.70
2010,11,04,04,15,5.70
2010,11,04,04,16,5.70
2010,11,04,04,17,5.70
2010,11,04,04,18,5.70
2010,11,04,04,19,5.70
2010,11,04,04,20,5.70
2010,11,04,04,21,5.70
2010,11,04,04,22,5.70
2010,11,04,04,23,5.70
2010,11,04,04,24,5.70
2010,11,04,04,25,5.70
2010,11,04,04,26,5.70
2010,11,04,04,27,5.70
2010,11,04,04,28,5.70
2010,11,04,04,29,5.70
2010,11,04,04,30,5.70
2010,11,04,04,31,5.70
2010,11,04,04,32,5.70
2010,11,04,04,33,5.60
2010,11,04,04,34,5.60
2010,11,04,04,35,5.60
2010,11,04,04,36,5.60
2010,11,04,04,37,5.60
2010,11,04,04,38,5.50
2010,11,04,04,39,5.50
2010,11,04,04,40,5.50
2010,11,04,04,41,5.50
2010,11,04,04,42,5.40
2010,11,04,04,43,5.40
2010,11,04,04,44,5.40
2010,11,04,04,45,5.30
2010,11,04,04,46,5.30
2010,11,04,04,47,5.30
2010,11,04,04,48,5.30
2010,11,04,04,49,5.30
2010,11,04,04,50,5.30
2010,11,04,04,51,5.30
2010,11,04,04,52,5.30
2010,11,04,04,53,5.30
2010,11,04,04,54,5.30
2010,11,04,04,55,5.30
2010,11,04,04,56,5.30
2010,11,04,04,57,5.30
2010,11,04,04,58,5.30
2010,11,04,04,59,5.30
2010,11,04,05,00,5.20
2010,11,04,05,01,5.20
2010,11,04,05,02,5.20
2010,11,04,05,03,5.10
2010,11,04,05,04,5.10
2010,11,04,05,05,5.10
2010,11,04,05,06,5.10
2010,11,04,05,07,5.10
2010,11,04,05,08,5.20
2010,11,04,05,09,5.20
2010,11,04,05,10,5.20
2010,11,04,05,11,5.20
2010,11,04,05,12,5.20
2010,11,04,05,13,5.20
2010,11,04,05,14,5.20
2010,11,04,05,15,5.20
2010,11,04,05,16,5.20
2010,11,04,05,17,5.10
2010,11,04,05,18,5.10
2010,11,04,05,19,5.10
2010,11,04,05,20,5.10
2010,11,04,05,21,5.10
2010,11,04,05,22,5.10
2010,11,04,05,23,5.10
2010,11,04,05,24,5.10
2010,11,04,05,25,5.10
2010,11,04,05,26,5.10
2010,11,04,05,27,5.10
2010,11,04,05,28,5.10
2010,11,04,05,29,5.10
2010,11,04,05,30,5.10
2010,11,04,05,31,5.10
2010,11,04,05,32,5.10
2010,11,04,05,33,5.10
2010,11,04,05,34,5.10
2010,11,04,05,35,5.00
2010,11,04,05,36,4.90
2010,11,04,05,37,4.90
2010,11,04,05,38,4.90
2010,11,04,05,39,4.90
2010,11,04,05,40,4.90
2010,11,04,05,41,4.90
2010,11,04,05,42,4.90
2010,11,04,05,43,4.90
2010,11,04,05,44,4.90
2010,11,04,05,45,4.90
2010,11,04,05,46,4.80
2010,11,04,05,47,4.80
2010,11,04,05,48,4.80
2010,11,04,05,49,4.80
2010,11,04,05,50,4.80
2010,11,04,05,51,4.80
2010,11,04,05,52,4.80
2010,11,04,05,53,4.80
2010,11,04,05,54,4.80
2010,11,04,05,55,4.80
2010,11,04,05,56,4.70
2010,11,04,05,57,4.70
2010,11,04,05,58,4.70
2010,11,04,05,59,4.80
2010,11,04,06,00,4.80
2010,11,04,06,01,4.80
2010,11,04,06,02,4.80
2010,11,04,06,03,4.80
2010,11,04,06,04,4.80
2010,11,04,06,05,4.80
2010,11,04,06,06,4.70
2010,11,04,06,07,4.70
2010,11,04,06,08,4.70
2010,11,04,06,09,4.70
2010,11,04,06,10,4.70
2010,11,04,06,11,4.70
2010,11,04,06,12,4.70
2010,11,04,06,13,4.70
2010,11,04,06,14,4.70
2010,11,04,06,15,4.70
2010,11,04,06,16,4.60
2010,11,04,06,17,4.60
2010,11,04,06,18,4.60
2010,11,04,06,19,4.60
2010,11,04,06,20,4.60
2010,11,04,06,21,4.60
2010,11,04,06,22,4.60
2010,11,04,06,23,4.60
2010,11,04,06,24,4.60
2010,11,04,06,25,4.60
2010,11,04,06,26,4.60
2010,11,04,06,27,4.60
2010,11,04,06,28,4.60
2010,11,04,06,29,4.60
2010,11,04,06,30,4.70
2010,11,04,06,31,4.70
2010,11,04,06,32,4.80
2010,11,04,06,33,4.80
2010,11,04,06,34,4.80
2010,11,04,06,35,4.80
2010,11,04,06,36,4.80
2010,11,04,06,37,4.70
2010,11,04,06,38,4.70
2010,11,04,06,39,4.70
2010,11,04,06,40,4.70
2010,11,04,06,41,4.70
2010,11,04,06,42,4.70
2010,11,04,06,43,4.60
2010,11,04,06,44,4.60
2010,11,04,06,45,4.60
2010,11,04,06,46,4.60
2010,11,04,06,47,4.60
2010,11,04,06,48,4.60
2010,11,04,06,49,4.60
2010,11,04,06,50,4.50
2010,11,04,06,51,4.50
2010,11,04,06,52,4.50
2010,11,04,06,53,4.50
2010,11,04,06,54,4.60
2010,11,04,06,55,4.60
2010,11,04,06,56,4.60
2010,11,04,06,57,4.60
2010,11,04,06,58,4.60
2010,11,04,06,59,4.60
2010,11,04,07,00,4.60
2010,11,04,07,01,4.60
2010,11,04,07,02,4.70
2010,11,04,07,03,4.80
2010,11,04,07,04,4.90
2010,11,04,07,05,4.90
2010,11,04,07,06,4.90
2010,11,04,07,07,4.90
2010,11,04,07,08,4.90
2010,11,04,07,09,4.90
2010,11,04,07,10,4.90
2010,11,04,07,11,4.90
2010,11,04,07,12,4.90
2010,11,04,07,13,4.90
2010,11,04,07,14,4.90
2010,11,04,07,15,4.90
2010,11,04,07,16,4.90
2010,11,04,07,17,4.90
2010,11,04,07,18,4.90
2010,11,04,07,19,4.90
2010,11,04,07,20,4.90
2010,11,04,07,21,4.90
2010,11,04,07,22,4.90
2010,11,04,07,23,4.90
2010,11,04,07,24,4.90
2010,11,04,07,25,4.90
2010,11,04,07,26,4.90
2010,11,04,07,27,4.90
2010,11,04,07,28,4.90
2010,11,04,07,29,4.90
2010,11,04,07,30,4.90
2010,11,04,07,31,4.90
2010,11,04,07,32,4.90
2010,11,04,07,33,4.90
2010,11,04,07,34,4.90
2010,11,04,07,35,4.90
2010,11,04,07,36,4.80
2010,11,04,07,37,4.80
2010,11,04,07,38,4.80
2010,11,04,07,39,4.80
2010,11,04,07,40,4.80
2010,11,04,07,41,4.80
2010,11,04,07,42,4.80
2010,11,04,07,43,4.70
2010,11,04,07,44,4.70
2010,11,04,07,45,4.60
2010,11,04,07,46,4.60
2010,11,04,07,47,4.60
2010,11,04,07,48,4.60
2010,11,04,07,49,4.60
2010,11,04,07,50,4.60
2010,11,04,07,51,4.60
2010,11,04,07,52,4.60
2010,11,04,07,53,4.60
2010,11,04,07,54,4.60
2010,11,04,07,55,4.60
2010,11,04,07,56,4.60
2010,11,04,07,57,4.60
2010,11,04,07,58,4.60
2010,11,04,07,59,4.60
2010,11,04,08,00,4.60
2010,11,04,08,01,4.60
2010,11,04,08,02,4.60
2010,11,04,08,03,4.50
2010,11,04,08,04,4.50
2010,11,04,08,05,4.50
2010,11,04,08,06,4.50
2010,11,04,08,07,4.50
2010,11,04,08,08,4.50
2010,11,04,08,09,4.50
2010,11,04,08,10,4.50
2010,11,04,08,11,4.50
2010,11,04,08,12,4.50
2010,11,04,08,13,4.50
2010,11,04,08,14,4.50
2010,11,04,08,15,4.40
2010,11,04,08,16,4.40
2010,11,04,08,17,4.40
2010,11,04,08,18,4.40
2010,11,04,08,19,4.40
2010,11,04,08,20,4.40
2010,11,04,08,21,4.40
2010,11,04,08,22,4.40
2010,11,04,08,23,4.50
2010,11,04,08,24,4.50
2010,11,04,08,25,4.50
2010,11,04,08,26,4.50
2010,11,04,08,27,4.50
2010,11,04,08,28,4.50
2010,11,04,08,29,4.60
2010,11,04,08,30,4.60
2010,11,04,08,31,4.60
2010,11,04,08,32,4.60
2010,11,04,08,33,4.60
2010,11,04,08,34,4.60
2010,11,04,08,35,4.60
2010,11,04,08,36,4.60
2010,11,04,08,37,4.60
2010,11,04,08,38,4.60
2010,11,04,08,39,4.60
2010,11,04,08,40,4.60
2010,11,04,08,41,4.60
2010,11,04,08,42,4.60
2010,11,04,08,43,4.60
2010,11,04,08,44,4.60
2010,11,04,08,45,4.60
2010,11,04,08,46,4.60
2010,11,04,08,47,4.60
2010,11,04,08,48,4.60
2010,11,04,08,49,4.60
2010,11,04,08,50,4.60
2010,11,04,08,51,4.60
2010,11,04,08,52,4.70
2010,11,04,08,53,4.70
2010,11,04,08,54,4.70
2010,11,04,08,55,4.70
2010,11,04,08,56,4.70
2010,11,04,08,57,4.80
2010,11,04,08,58,4.80
2010,11,04,08,59,4.80
2010,11,04,09,00,4.90
2010,11,04,09,01,4.90
2010,11,04,09,02,4.90
2010,11,04,09,03,4.90
2010,11,04,09,04,5.00
2010,11,04,09,05,5.10
2010,11,04,09,06,5.10
2010,11,04,09,07,5.10
2010,11,04,09,08,5.10
2010,11,04,09,09,5.10
2010,11,04,09,10,5.10
2010,11,04,09,11,5.20
2010,11,04,09,12,5.20
2010,11,04,09,13,5.30
2010,11,04,09,14,5.30
2010,11,04,09,15,5.30
2010,11,04,09,16,5.30
2010,11,04,09,17,5.40
2010,11,04,09,18,5.40
2010,11,04,09,19,5.50
2010,11,04,09,20,5.60
2010,11,04,09,21,5.70
2010,11,04,09,22,5.70
2010,11,04,09,23,5.70
2010,11,04,09,24,5.80
2010,11,04,09,25,5.90
2010,11,04,09,26,5.90
2010,11,04,09,27,5.90
2010,11,04,09,28,6.00
2010,11,04,09,29,6.00
2010,11,04,09,30,6.00
2010,11,04,09,31,6.10
2010,11,04,09,32,6.10
2010,11,04,09,33,6.10
2010,11,04,09,34,6.10
2010,11,04,09,35,6.20
2010,11,04,09,36,6.20
2010,11,04,09,37,6.20
2010,11,04,09,38,6.20
2010,11,04,09,39,6.20
2010,11,04,09,40,6.20
2010,11,04,09,41,6.20
2010,11,04,09,42,6.20
2010,11,04,09,43,6.20
2010,11,04,09,44,6.10
2010,11,04,09,45,6.10
2010,11,04,09,46,6.10
2010,11,04,09,47,6.20
2010,11,04,09,48,6.20
2010,11,04,09,49,6.20
2010,11,04,09,50,6.20
2010,11,04,09,51,6.20
2010,11,04,09,52,6.30
2010,11,04,09,53,6.30
2010,11,04,09,54,6.40
2010,11,04,09,55,6.40
2010,11,04,09,56,6.40
2010,11,04,09,57,6.40
2010,11,04,09,58,6.50
2010,11,04,09,59,6.60
2010,11,04,10,00,6.60
2010,11,04,10,01,6.60
2010,11,04,10,02,6.70
2010,11,04,10,03,6.80
2010,11,04,10,04,6.80
2010,11,04,10,05,6.90
2010,11,04,10,06,7.10
2010,11,04,10,07,7.20
2010,11,04,10,08,7.30
2010,11,04,10,09,7.30
2010,11,04,10,10,7.30
2010,11,04,10,11,7.30
2010,11,04,10,12,7.30
2010,11,04,10,13,7.30
2010,11,04,10,14,7.30
2010,11,04,10,15,7.30
2010,11,04,10,16,7.30
2010,11,04,10,17,7.30
2010,11,04,10,18,7.30
2010,11,04,10,19,7.30
2010,11,04,10,20,7.30
2010,11,04,10,21,7.20
2010,11,04,10,22,7.20
2010,11,04,10,23,7.20
2010,11,04,10,24,7.30
2010,11,04,10,25,7.30
2010,11,04,10,26,7.30
2010,11,04,10,27,7.40
2010,11,04,10,28,7.50
2010,11,04,10,29,7.60
2010,11,04,10,30,7.70
2010,11,04,10,31,7.80
2010,11,04,10,32,7.90
2010,11,04,10,33,7.90
2010,11,04,10,34,8.00
2010,11,04,10,35,8.00
2010,11,04,10,36,8.00
2010,11,04,10,37,8.00
2010,11,04,10,38,8.10
2010,11,04,10,39,8.10
2010,11,04,10,40,8.10
2010,11,04,10,41,8.10
2010,11,04,10,42,8.10
2010,11,04,10,43,8.10
2010,11,04,10,44,8.20
2010,11,04,10,45,8.20
2010,11,04,10,46,8.20
2010,11,04,10,47,8.30
2010,11,04,10,48,8.30
2010,11,04,10,49,8.40
2010,11,04,10,50,8.40
2010,11,04,10,51,8.50
2010,11,04,10,52,8.50
2010,11,04,10,53,8.60
2010,11,04,10,54,8.60
2010,11,04,10,55,8.70
2010,11,04,10,56,8.70
2010,11,04,10,57,8.70
2010,11,04,10,58,8.70
2010,11,04,10,59,8.70
2010,11,04,11,00,8.80
2010,11,04,11,01,8.80
2010,11,04,11,02,8.80
2010,11,04,11,03,8.90
2010,11,04,11,04,8.90
2010,11,04,11,05,8.90
2010,11,04,11,06,8.90
2010,11,04,11,07,9.00
2010,11,04,11,08,9.00
2010,11,04,11,09,9.00
2010,11,04,11,10,9.00
2010,11,04,11,11,9.10
2010,11,04,11,12,9.10
2010,11,04,11,13,9.10
2010,11,04,11,14,9.20
2010,11,04,11,15,9.20
2010,11,04,11,16,9.20
2010,11,04,11,17,9.20
2010,11,04,11,18,9.30
2010,11,04,11,19,9.30
2010,11,04,11,20,9.30
2010,11,04,11,21,9.40
2010,11,04,11,22,9.40
2010,11,04,11,23,9.40
2010,11,04,11,24,9.40
2010,11,04,11,25,9.40
2010,11,04,11,26,9.50
2010,11,04,11,27,9.50
2010,11,04,11,28,9.60
2010,11,04,11,29,9.60
2010,11,04,11,30,9.60
2010,11,04,11,31,9.70
2010,11,04,11,32,9.70
2010,11,04,11,33,9.70
2010,11,04,11,34,9.70
2010,11,04,11,35,9.80
2010,11,04,11,36,9.80
2010,11,04,11,37,9.90
2010,11,04,11,38,9.90
2010,11,04,11,39,9.90
2010,11,04,11,40,9.90
2010,11,04,11,41,9.90
2010,11,04,11,42,10.00
2010,11,04,11,43,10.10
2010,11,04,11,44,10.10
2010,11,04,11,45,10.10
2010,11,04,11,46,10.10
2010,11,04,11,47,10.10
2010,11,04,11,48,10.10
2010,11,04,11,49,10.20
2010,11,04,11,50,10.20
2010,11,04,11,51,10.20
2010,11,04,11,52,10.30
2010,11,04,11,53,10.30
2010,11,04,11,54,10.40
2010,11,04,11,55,10.40
2010,11,04,11,56,10.40
2010,11,04,11,57,10.40
2010,11,04,11,58,10.40
2010,11,04,11,59,10.40
2010,11,04,12,00,10.40
2010,11,04,12,01,10.50
2010,11,04,12,02,10.60
2010,11,04,12,03,10.60
2010,11,04,12,04,10.60
2010,11,04,12,05,10.60
2010,11,04,12,06,10.60
2010,11,04,12,07,10.60
2010,11,04,12,08,10.70
2010,11,04,12,09,10.70
2010,11,04,12,10,10.80
2010,11,04,12,11,10.80
2010,11,04,12,12,10.90
2010,11,04,12,13,10.90
2010,11,04,12,14,10.90
2010,11,04,12,15,10.90
2010,11,04,12,16,11.00
2010,11,04,12,17,11.10
2010,11,04,12,18,11.10
2010,11,04,12,19,11.10
2010,11,04,12,20,11.10
2010,11,04,12,21,11.10
2010,11,04,12,22,11.20
2010,11,04,12,23,11.20
2010,11,04,12,24,11.30
2010,11,04,12,25,11.40
2010,11,04,12,26,11.40
2010,11,04,12,27,11.40
2010,11,04,12,28,11.60
2010,11,04,12,29,11.60
2010,11,04,12,30,11.60
2010,11,04,12,31,11.70
2010,11,04,12,32,11.70
2010,11,04,12,33,11.80
2010,11,04,12,34,11.80
2010,11,04,12,35,11.90
2010,11,04,12,36,11.90
2010,11,04,12,37,12.00
2010,11,04,12,38,12.00
2010,11,04,12,39,12.10
2010,11,04,12,40,12.10
2010,11,04,12,41,12.20
2010,11,04,12,42,12.30
2010,11,04,12,43,12.30
2010,11,04,12,44,12.30
2010,11,04,12,45,12.30
2010,11,04,12,46,12.40
2010,11,04,12,47,12.50
2010,11,04,12,48,12.50
2010,11,04,12,49,12.60
2010,11,04,12,50,12.60
2010,11,04,12,51,12.60
2010,11,04,12,52,12.60
2010,11,04,12,53,12.70
2010,11,04,12,54,12.60
2010,11,04,12,55,12.60
2010,11,04,12,56,12.60
2010,11,04,12,57,12.60
2010,11,04,12,58,12.60
2010,11,04,12,59,12.60
2010,11,04,13,00,12.60
2010,11,04,13,01,12.60
2010,11,04,13,02,12.70
2010,11,04,13,03,12.70
2010,11,04,13,04,12.70
2010,11,04,13,05,12.80
2010,11,04,13,06,12.80
2010,11,04,13,07,12.80
2010,11,04,13,08,12.80
2010,11,04,13,09,12.80
2010,11,04,13,10,12.80
2010,11,04,13,11,12.80
2010,11,04,13,12,12.80
2010,11,04,13,13,12.80
2010,11,04,13,14,12.80
2010,11,04,13,15,12.80
2010,11,04,13,16,12.80
2010,11,04,13,17,12.80
2010,11,04,13,18,12.80
2010,11,04,13,19,12.90
2010,11,04,13,20,12.90
2010,11,04,13,21,12.90
2010,11,04,13,22,12.90
2010,11,04,13,23,13.00
2010,11,04,13,24,13.00
2010,11,04,13,25,13.00
2010,11,04,13,26,13.00
2010,11,04,13,27,13.10
2010,11,04,13,28,13.10
2010,11,04,13,29,13.10
2010,11,04,13,30,13.20
2010,11,04,13,31,13.20
2010,11,04,13,32,13.10
2010,11,04,13,33,13.10
2010,11,04,13,34,13.20
2010,11,04,13,35,13.20
2010,11,04,13,36,13.20
2010,11,04,13,37,13.30
2010,11,04,13,38,13.30
2010,11,04,13,39,13.40
2010,11,04,13,40,13.50
2010,11,04,13,41,13.50
2010,11,04,13,42,13.60
2010,11,04,13,43,13.60
2010,11,04,13,44,13.60
2010,11,04,13,45,13.60
2010,11,04,13,46,13.70
2010,11,04,13,47,13.70
2010,11,04,13,48,13.70
2010,11,04,13,49,13.80
2010,11,04,13,50,13.80
2010,11,04,13,51,13.90
2010,11,04,13,52,13.90
2010,11,04,13,53,13.90
2010,11,04,13,54,13.80
2010,11,04,13,55,13.80
2010,11,04,13,56,13.80
2010,11,04,13,57,13.90
2010,11,04,13,58,13.90
2010,11,04,13,59,13.90
2010,11,04,14,00,14.00
2010,11,04,14,01,14.00
2010,11,04,14,02,14.00
2010,11,04,14,03,14.10
2010,11,04,14,04,14.20
2010,11,04,14,05,14.20
2010,11,04,14,06,14.20
2010,11,04,14,07,14.20
2010,11,04,14,08,14.20
2010,11,04,14,09,14.30
2010,11,04,14,10,14.30
2010,11,04,14,11,14.40
2010,11,04,14,12,14.50
2010,11,04,14,13,14.60
2010,11,04,14,14,14.60
2010,11,04,14,15,14.80
2010,11,04,14,16,14.80
2010,11,04,14,17,14.90
2010,11,04,14,18,15.00
2010,11,04,14,19,15.20
2010,11,04,14,20,15.30
2010,11,04,14,21,15.40
2010,11,04,14,22,15.50
2010,11,04,14,23,15.50
2010,11,04,14,24,15.60
2010,11,04,14,25,15.60
2010,11,04,14,26,15.60
2010,11,04,14,27,15.70
2010,11,04,14,28,15.70
2010,11,04,14,29,15.70
2010,11,04,14,30,15.60
2010,11,04,14,31,15.50
2010,11,04,14,32,15.50
2010,11,04,14,33,15.40
2010,11,04,14,34,15.40
2010,11,04,14,35,15.40
2010,11,04,14,36,15.30
2010,11,04,14,37,15.30
2010,11,04,14,38,15.20
2010,11,04,14,39,15.20
2010,11,04,14,40,15.10
2010,11,04,14,41,15.10
2010,11,04,14,42,15.10
2010,11,04,14,43,15.10
2010,11,04,14,44,15.10
2010,11,04,14,45,15.20
2010,11,04,14,46,15.10
2010,11,04,14,47,15.10
2010,11,04,14,48,15.10
2010,11,04,14,49,15.10
2010,11,04,14,50,15.10
2010,11,04,14,51,15.10
2010,11,04,14,52,15.10
2010,11,04,14,53,15.10
2010,11,04,14,54,15.10
2010,11,04,14,55,15.10
2010,11,04,14,56,15.20
2010,11,04,14,57,15.20
2010,11,04,14,58,15.20
2010,11,04,14,59,15.20
2010,11,04,15,00,15.20
2010,11,04,15,01,15.20
2010,11,04,15,02,15.20
2010,11,04,15,03,15.20
2010,11,04,15,04,15.10
2010,11,04,15,05,15.10
2010,11,04,15,06,15.10
2010,11,04,15,07,15.10
2010,11,04,15,08,15.10
2010,11,04,15,09,15.10
2010,11,04,15,10,15.20
2010,11,04,15,11,15.20
2010,11,04,15,12,15.20
2010,11,04,15,13,15.20
2010,11,04,15,14,15.20
2010,11,04,15,15,15.10
2010,11,04,15,16,15.00
2010,11,04,15,17,15.00
2010,11,04,15,18,14.90
2010,11,04,15,19,14.80
2010,11,04,15,20,14.80
2010,11,04,15,21,14.80
2010,11,04,15,22,14.80
2010,11,04,15,23,14.80
2010,11,04,15,24,14.70
2010,11,04,15,25,14.70
2010,11,04,15,26,14.70
2010,11,04,15,27,14.60
2010,11,04,15,28,14.60
2010,11,04,15,29,14.60
2010,11,04,15,30,14.60
2010,11,04,15,31,14.60
2010,11,04,15,32,14.60
2010,11,04,15,33,14.60
2010,11,04,15,34,14.60
2010,11,04,15,35,14.50
2010,11,04,15,36,14.50
2010,11,04,15,37,14.50
2010,11,04,15,38,14.50
2010,11,04,15,39,14.50
2010,11,04,15,40,14.40
2010,11,04,15,41,14.40
2010,11,04,15,42,14.40
2010,11,04,15,43,14.30
2010,11,04,15,44,14.30
2010,11,04,15,45,14.20
2010,11,04,15,46,14.20
2010,11,04,15,47,14.20
2010,11,04,15,48,14.20
2010,11,04,15,49,14.20
2010,11,04,15,50,14.20
2010,11,04,15,51,14.20
2010,11,04,15,52,14.20
2010,11,04,15,53,14.10
2010,11,04,15,54,14.10
2010,11,04,15,55,14.10
2010,11,04,15,56,14.10
2010,11,04,15,57,14.10
2010,11,04,15,58,14.10
2010,11,04,15,59,14.10
2010,11,04,16,00,14.10
2010,11,04,16,01,14.20
2010,11,04,16,02,14.20
2010,11,04,16,03,14.20
2010,11,04,16,04,14.20
2010,11,04,16,05,14.20
2010,11,04,16,06,14.20
2010,11,04,16,07,14.20
2010,11,04,16,08,14.20
2010,11,04,16,09,14.20
2010,11,04,16,10,14.10
2010,11,04,16,11,14.10
2010,11,04,16,12,14.10
2010,11,04,16,13,14.10
2010,11,04,16,14,14.10
2010,11,04,16,15,14.10
2010,11,04,16,16,14.10
2010,11,04,16,17,14.10
2010,11,04,16,18,14.10
2010,11,04,16,19,14.00
2010,11,04,16,20,14.00
2010,11,04,16,21,14.00
2010,11,04,16,22,14.00
2010,11,04,16,23,14.00
2010,11,04,16,24,13.90
2010,11,04,16,25,13.90
2010,11,04,16,26,13.90
2010,11,04,16,27,13.80
2010,11,04,16,28,13.80
2010,11,04,16,29,13.70
2010,11,04,16,30,13.70
2010,11,04,16,31,13.70
2010,11,04,16,32,13.70
2010,11,04,16,33,13.60
2010,11,04,16,34,13.60
2010,11,04,16,35,13.50
2010,11,04,16,36,13.50
2010,11,04,16,37,13.40
2010,11,04,16,38,13.40
2010,11,04,16,39,13.30
2010,11,04,16,40,13.30
2010,11,04,16,41,13.30
2010,11,04,16,42,13.30
2010,11,04,16,43,13.30
2010,11,04,16,44,13.20
2010,11,04,16,45,13.20
2010,11,04,16,46,13.20
2010,11,04,16,47,13.20
2010,11,04,16,48,13.10
2010,11,04,16,49,13.10
2010,11,04,16,50,13.10
2010,11,04,16,51,13.00
2010,11,04,16,52,13.00
2010,11,04,16,53,13.00
2010,11,04,16,54,12.90
2010,11,04,16,55,12.90
2010,11,04,16,56,12.90
2010,11,04,16,57,12.90
2010,11,04,16,58,12.90
2010,11,04,16,59,12.80
2010,11,04,17,00,12.80
2010,11,04,17,01,12.80
2010,11,04,17,02,12.80
2010,11,04,17,03,12.80
2010,11,04,17,04,12.80
2010,11,04,17,05,12.80
2010,11,04,17,06,12.80
2010,11,04,17,07,12.80
2010,11,04,17,08,12.80
2010,11,04,17,09,12.80
2010,11,04,17,10,12.80
2010,11,04,17,11,12.70
2010,11,04,17,12,12.70
2010,11,04,17,13,12.70
2010,11,04,17,14,12.70
2010,11,04,17,15,12.70
2010,11,04,17,16,12.70
2010,11,04,17,17,12.60
2010,11,04,17,18,12.60
2010,11,04,17,19,12.60
2010,11,04,17,20,12.50
2010,11,04,17,21,12.50
2010,11,04,17,22,12.50
2010,11,04,17,23,12.50
2010,11,04,17,24,12.50
2010,11,04,17,25,12.40
2010,11,04,17,26,12.40
2010,11,04,17,27,12.40
2010,11,04,17,28,12.40
2010,11,04,17,29,12.40
2010,11,04,17,30,12.40
2010,11,04,17,31,12.40
2010,11,04,17,32,12.40
2010,11,04,17,33,12.40
2010,11,04,17,34,12.40
2010,11,04,17,35,12.30
2010,11,04,17,36,12.30
2010,11,04,17,37,12.30
2010,11,04,17,38,12.30
2010,11,04,17,39,12.30
2010,11,04,17,40,12.30
2010,11,04,17,41,12.30
2010,11,04,17,42,12.30
2010,11,04,17,43,12.20
2010,11,04,17,44,12.20
2010,11,04,17,45,12.20
2010,11,04,17,46,12.10
2010,11,04,17,47,12.10
2010,11,04,17,48,12.10
2010,11,04,17,49,12.00